C/2021 C6 ( Lemmon )

Japanese version
Home page
Updated on April 24, 2022

---------------------------------------------------------------------

* Profile

Discovery Date February 7, 2021
Magnitude 20.8 mag
Discoverer Mt. Lemmon Survey

* Pictures

* Orbital Elements

Epoch 2022 Jan. 21.0 TT = JDT 2459600.5
T 2021 Nov. 13.31671 TT                                 Rudenko
q   3.2712093            (2000.0)            P               Q
z  -0.0005139      Peri.  203.56030     -0.63049588     +0.76625108
 +/-0.0000006      Node   332.15556     +0.74762800     +0.64239661
e   1.0016810      Incl.  164.62576     +0.20863202     +0.01363380
From 200 observations 2021 Jan. 23-2022 Jan. 25, mean residual 0".5.

* Magnitudes Graph

        m1 = 12.0 + 5 log d + 10.0 log r(t + 50)

---------------------------------------------------------------------

The orbital elements are published on M.P.E.C. 2022-C56.
The magnitudes graphs are made with Comet for Windows.

---------------------------------------------------------------------

Copyright(C) Seiichi Yoshida (comet@aerith.net). All rights reserved.